INTELSAT 36 (IS-36) (41747 NORAD) Tracking and Keplerian Element Data

This shows tracking and keplerian element data for the satellite.

Feedback or suggestion? Click here.




ElementValue
Catalog41747
NameINTELSAT 36 (IS-36)
Epoch Orbit821
Epoch Day321.65242406
Epoch Year2018
RAAN330.1195
Inclination0.0129
Eccentricity0.0001329
Argument of Perigee46.7962
Mean Anonmoly343.1214
Mean Motion1.00272539
Decay Rate-1.8E-07
L11 41747U 16053A 18321.65242406 -.00000018 00000-0 00000+0 0 9991
L22 41747 0.0129 330.1195 0001329 46.7962 343.1214 1.00272539 8216

Live tracking and technical data element details for INTELSAT 36 (IS-36) (NORAD 41747). INTELSAT 36 (IS-36) can be tracked NOW for your location showing map with azimuth and elevation plus other details from your city location.

Track the satellite on the map from your city or location and see movement details for azimuth, elevation, latitude, longitude, range, height, and movement on the map or in text.







IsCatalogInMostPopularTable: catalog: 41747, numindb: 117
Update: records affected: 1



GetName: 41747 INTELSAT 36 (IS-36)

Hit Count: updated at: Mon, 19 Nov 2018 10:58:31 GMT